Bentonville, AR

9:53 AM CST on February 24, 2017 (GMT -0600)
Northwest Arkansas Regional

Weather History for KXNA - March, 2014

Change the Weather History Date:

Monday, March 31, 2014

  Actual Average (KVBT) Record (KVBT)
Temperature  
Mean Temperature 59 °F -  
Max Temperature 64 °F 62 °F 85 °F (1974)
Min Temperature 54 °F 37 °F 19 °F (1987)
Degree Days  
Heating Degree Days 6    
Growing Degree Days 9 (Base 50)    
Moisture  
Dew Point 44 °F    
Average Humidity 61    
Maximum Humidity 82    
Minimum Humidity 42    
Precipitation  
Precipitation 0.01 in - - ()
Sea Level Pressure  
Sea Level Pressure 29.86 in    
Wind  
Wind Speed 15 mph (South)    
Max Wind Speed 28 mph    
Max Gust Speed 36 mph    
Visibility 10 miles    
Events Rain , Thunderstorm    
Averages and records for this station are not official NWS values.
T = Trace of Precipitation, MM = Missing Value Source: NWS Daily Summary

Daily Weather History Graph

Daily Weather History Graph

Search for Another Location

Airport or City:

Trip Planner

Search our weather history database for the weather conditions in past years. The results will help you decide how hot, cold, wet, or windy it might be!

Date:

Astronomy

Mar. 31, 2014 Rise Set
Actual Time 7:04 AM CDT 7:38 PM CDT
Civil Twilight 6:38 AM CDT 8:04 PM CDT
Nautical Twilight 6:08 AM CDT 8:34 PM CDT
Astronomical Twilight 5:37 AM CDT 9:06 PM CDT
Moon 7:30 AM CDT (3/31) 8:55 PM CDT (3/31)
Length of Visible Light 13h 25m
Length of Day
12h 33m
New Moon, 1% of the Moon is Illuminated
Mar 31
New Moon
Apr 7
First Quarter
Apr 15
Full
Apr 22
Last Quarter
Apr 29
New

Hourly Weather History & Observations

Time (CDT) Temp. Dew Point Humidity Pressure Visibility Wind Dir Wind Speed Gust Speed Precip Events Conditions
12:53 AM 57.9 °F 37.9 °F 47% 29.93 in 10.0 mi South 15.0 mph - N/A   Clear
1:53 AM 57.0 °F 39.0 °F 51% 29.92 in 10.0 mi South 12.7 mph - N/A   Clear
2:53 AM 57.0 °F 39.9 °F 53% 29.90 in 10.0 mi South 13.8 mph - N/A   Clear
3:53 AM 55.0 °F 39.9 °F 57% 29.87 in 10.0 mi South 11.5 mph - N/A   Clear
4:53 AM 55.0 °F 39.9 °F 57% 29.85 in 10.0 mi South 11.5 mph - N/A   Clear
5:53 AM 55.9 °F 39.9 °F 55% 29.85 in 10.0 mi South 13.8 mph - N/A   Clear
6:53 AM 55.9 °F 39.9 °F 55% 29.85 in 10.0 mi South 15.0 mph - N/A   Clear
7:53 AM 55.9 °F 37.9 °F 51% 29.86 in 10.0 mi South 9.2 mph - N/A   Clear
8:53 AM 57.0 °F 36.0 °F 45% 29.86 in 10.0 mi South 20.7 mph 26.5 mph N/A   Clear
9:53 AM 57.9 °F 35.1 °F 42% 29.85 in 10.0 mi South 19.6 mph 25.3 mph N/A   Partly Cloudy
10:53 AM 57.9 °F 36.0 °F 44% 29.86 in 10.0 mi SSW 12.7 mph 26.5 mph 0.00 in Rain Light Rain
11:53 AM 57.9 °F 39.0 °F 49% 29.86 in 10.0 mi South 17.3 mph 23.0 mph 0.00 in   Scattered Clouds
12:53 PM 54.0 °F 44.1 °F 69% 29.79 in 8.0 mi SSE 27.6 mph 35.7 mph 0.00 in   Overcast
1:30 PM 55.4 °F 46.4 °F 72% 29.85 in 10.0 mi SSW 13.8 mph 21.9 mph 0.01 in   Scattered Clouds
1:53 PM 55.9 °F 46.9 °F 72% 29.82 in 10.0 mi South 16.1 mph 25.3 mph 0.01 in   Clear
2:53 PM 64.0 °F 48.0 °F 56% 29.80 in 10.0 mi South 23.0 mph 28.8 mph N/A   Clear
3:53 PM 62.1 °F 48.0 °F 60% 29.81 in 10.0 mi SSW 16.1 mph 25.3 mph N/A   Mostly Cloudy
4:53 PM 61.0 °F 50.0 °F 67% 29.83 in 10.0 mi SSW 16.1 mph 26.5 mph N/A   Overcast
5:10 PM 60.8 °F 50.0 °F 68% 29.85 in 10.0 mi SSW 16.1 mph 25.3 mph N/A   Overcast
5:45 PM 62.6 °F 51.8 °F 68% 29.85 in 10.0 mi SSW 19.6 mph 26.5 mph N/A   Mostly Cloudy
5:53 PM 63.0 °F 51.1 °F 65% 29.83 in 10.0 mi South 12.7 mph 26.5 mph N/A   Scattered Clouds
6:53 PM 60.1 °F 52.0 °F 75% 29.84 in 10.0 mi South 19.6 mph - N/A   Clear
7:53 PM 57.9 °F 51.1 °F 78% 29.86 in 10.0 mi South 12.7 mph - N/A   Partly Cloudy
8:53 PM 57.9 °F 52.0 °F 81% 29.88 in 10.0 mi South 8.1 mph - N/A   Scattered Clouds
9:30 PM 57.2 °F 51.8 °F 82% 29.92 in 10.0 mi SSW 4.6 mph - 0.00 in Rain , Thunderstorm Light Rain